User: anonymous   Login
Location: Ellingshausen
(50.5460°N, 10.4723°E)
Time: 13:35:15
(UTC+00:00)
Language:

Cosmos 44 - Orbit

View from above orbital plane
View from above orbital plane
View from above satellite
View from above satellite

Ground track
Ground track

The orbit is defined by the following mean orbital elements,

1 00876U          26072.87350221 +.00000000 +00000-0 +58006-4 0 00002
2 00876  65.0580 247.3704 0150254 296.5359  62.0404 14.65677992    02
Epoch (UTC): 13 March 2026 20:57:50
Eccentricity: 0.0150254
inclination: 65.0580°
perigee height: 569 km
apogee height: 781 km
right ascension of ascending node: 247.3704°
argument of perigee: 296.5359°
revolutions per day: 14.65677992
mean anomaly at epoch: 62.0404°

The dashed part of the orbit path shows where the satellite is in the earth's shadow,  

DLR